Regional Weather Roundup
Issued by NWS Sterling, VA

Home | Current Version | Previous Version | Graphics & Text | Print | Product List | Glossary On
Versions: 1 2 3 4 5 6 7 8 9 10 11 12 13 14 15 16 17 18 19 20 21 22 23 24 25 26 27 28
000
ASUS41 KLWX 300011
RWRLWX

REGIONAL WEATHER ROUNDUP
NATIONAL WEATHER SERVICE BALTIMORE MD/WASHINGTON DC
800 PM EDT THU SEP 29 2016

Note: "FAIR" indicates few or no clouds below 12,000 feet
with no significant weather and/or obstructions to visibility.
 TC=TEMPERATURE CELSIUS

 * =Non NWS site. Station does not report precipitation (e.g. rain,
    snow, etc.), thunder, or fog.

DCZ001-MDZ009-015-VAZ040>042-051-053>054-300100-
WASHINGTON METRO

CITY           SKY/WX    TMP DP  RH WIND       PRES   REMARKS
WASHINGTON NAT DRIZZLE   67  65  93 E20G25    30.15F FOG
DULLES         LGT RAIN  65  62  90 E13G22    30.14F
ANDREWS AFB    DRIZZLE   64  63  94 E14       30.15R
FT BELVOIR     LGT RAIN  66  63  88 VRB3      30.14S
QUANTICO       CLOUDY    69  65  86 E16       30.13S
COLLEGE PARK*  CLOUDY    63  61  94 NE7       30.17R
LEESBURG*      CLOUDY    64  64 100 NE12G18   30.16S FOG
GAITHERSBURG*  CLOUDY    63  59  88 E5        30.21R

$$

MDZ006>007-011-014-300100-
BALTIMORE METRO

CITY           SKY/WX    TMP DP  RH WIND       PRES   REMARKS
BWI AIRPORT    CLOUDY    64  61  90 E23       30.19R
MD SCIENCE CTR   N/A     64  60  87 MISG      30.20S
MARTIN STATE   DRIZZLE   64  64 100 NE9G26    30.20F
ANNAPOLIS      CLOUDY    67  63  87 NE21G29   30.17S
FORT MEADE*    CLOUDY    63  61  94 E16G22    30.20S

$$

MDZ012-015-019>023-300100-
MARYLAND EASTERN SHORE

CITY           SKY/WX    TMP DP  RH WIND       PRES   REMARKS
OCEAN CITY     LGT RAIN N/A N/A N/A E20G36    30.13S
SALISBURY      LGT RAIN  67  66  97 NE15G24   30.13S
BAY BRIDGE AP* LGT RAIN  64  63  94 MISG      30.17R
CAMBRIDGE*     CLOUDY    64  63  94 E12G22    30.13R
EASTON*        RAIN      66  63  88 E20G31    30.18S

$$

MDZ017>025-300100-
SOUTHERN MARYLAND

CITY           SKY/WX    TMP DP  RH WIND       PRES   REMARKS
PATUXENT RIVER CLOUDY    67  64  90 E20G31    30.11S
ST INIGOES     CLOUDY    69  65  86 NE13G23   30.10S
LEONARDTOWN*   CLOUDY    64  63  94 E8        30.14S

$$

MDZ003>005-300100-
NORTH CENTRAL MARYLAND

CITY           SKY/WX    TMP DP  RH WIND       PRES   REMARKS
FREDERICK*     CLOUDY    64  64 100 NE8       30.21S FOG
HAGERSTOWN APT CLOUDY    63  57  81 NE13      30.19S

$$

MDZ501>502-300100-
WESTERN MARYLAND

CITY           SKY/WX    TMP DP  RH WIND       PRES   REMARKS
OAKLAND*       MOCLDY    54  54 100 E13G24    30.13S FOG
CUMBERLAND*    CLOUDY    63  61  94 E12G24    30.19R

$$

VAZ025>031-300100-
SHENANDOAH VALLEY

CITY           SKY/WX    TMP DP  RH WIND       PRES   REMARKS
WINCHESTER*    CLOUDY    64  63  94 E8        30.15R FOG
FRONT ROYAL*   CLOUDY    64  63  94 E8        30.13R
LURAY*         DRIZZLE  N/A N/A N/A NE6G21    30.12R
NEW MARKET*    CLOUDY   N/A N/A N/A E7        30.09R
STAUNTON*      RAIN      66  64  93 E15G22    30.08S
WAYNESBORO*    CLOUDY    66  65  94 E17G23    30.08R

$$

WVZ021-048>050-054>055-300100-
EASTERN WEST VIRGINIA PANHANDLE

CITY           SKY/WX    TMP DP  RH WIND       PRES   REMARKS
MARTINSBURG    CLOUDY    63  60  90 E10       30.17R
PETERSBURG*    RAIN      66  65  97 NW5       30.07R

$$

VAZ036>039-050-300100-
CENTRAL FOOTHILLS

CITY           SKY/WX    TMP DP  RH WIND       PRES   REMARKS
CHARLOTTESVILL CLOUDY    70  66  87 E10       30.09R
CULPEPER*      CLOUDY    68  66  92 E7        30.13R
ORANGE*          N/A     70  68  94 NE10G20   30.12R
GORDONSVILLE*  NOT AVBL
WARRENTON*     CLOUDY    67  61  80 E14       30.12R HAZE

$$

VAZ055>057-300100-
NORTH AND CENTRAL PIEDMONT

CITY           SKY/WX    TMP DP  RH WIND       PRES   REMARKS
FREDERICKSBRG* CLOUDY    69  68  98 E10G25    30.11R
STAFFORD*      CLOUDY    67  65  93 E15G22    30.15S

$$

NCZ024-NYZ072-PAZ021-071-VAZ022-071-300100-
OTHER REGIONAL OBSERVATIONS

CITY           SKY/WX    TMP DP  RH WIND       PRES   REMARKS
NEW YORK CITY  CLOUDY    62  52  69 E8G24     30.38R
PHILADELPHIA   LGT RAIN  61  58  90 E20G26    30.28S
PITTSBURGH     CLOUDY    63  59  87 E10       30.12R
ROANOKE        CLOUDY    66  64  93 CALM      30.06R
RICHMOND       CLOUDY    69  65  86 E15       30.08R
RALEIGH        MOCLDY    73  70  90 E5        30.01S

$$

ANZ530>537-300100-
MARINE OBSERVATIONS

STATION/POSITION TIME  TEMP    WIND        PRES
                       AIR SEA DIR/SP/G
                 (UTC) (F)     (DEG/KT/KT) (MB)
THOMAS PT LIGHT  0000   66 72   60/ 21/ 25 1022.1F
BALT KEY BRIDGE  2342           60/ 13/ 16 1022.1F
COVE POINT       2342          100/ 27/ 31 1020.1F
LEWISETTA        2342      72   90/ 19/ 23 1018.6R
SOLOMONS ISLAND  2342      74   50/ 16/ 24   N/A
PINEY POINT      2336           90/ 13/ 17   N/A

$$





USA.gov is the U.S. government's official web portal to all federal, state and local government web resources and services.